カタログに戻る

STARLINK-38293

運用中通信SSO
NORAD 100387·PAYLOAD·🇺🇸 United States

打ち上げ Aug 19, 2026 から Vandenberg Space Force Base

Loading…

次のパス (今後24時間)

TLE

最新Source: Space-Track

元期: Sep 14, 2026, 20:34 UTC

1 A0387U 26190S   26257.85717582 -.01013738  00000-0 -90772-2 0  9993
2 A0387  97.2830 111.8782 0001204 115.3029 244.8359 15.70766193  5482

AllMySatでSTARLINK-38293をリアルタイム追跡

Download on the App Store